This demonstration page uses our WeatherBlox Daily Observations layout. Learn more.

Left ArrowRight Arrow

Hourly Observations for May 22, 2021

Temp ( °F °C ) Dew Point ( °F °C ) Humidity (%) Winds ( mph kmh ) Pressure ( in mb ) Visibility ( mi km ) Precip ( " mm )
12:53 am 00:53 Clear 75 23.9 60 15.6 60 60 SE 21 33 29.85 1011 10 16 0.00 0.00
1:53 am 01:53 Clear 73 22.8 61 16.1 66 66 SE 20 31 29.85 1011 10 16 0.00 0.00
2:53 am 02:53 Clear 72 22.2 61 16.1 68 68 SE 20 31 29.85 1011 10 16 0.00 0.00
3:27 am 03:27 Mostly Cloudy 72 22.2 61 16.1 68 68 SE 17 28 29.87 1011 10 16 0.00 0.00
3:53 am 03:53 Cloudy 72 22.2 61 16.1 68 68 SE 21 33 29.87 1011 10 16 0.00 0.00
4:53 am 04:53 Cloudy 72 22.2 62 16.7 71 71 SE 18 30 29.87 1012 10 16 0.00 0.00
5:53 am 05:53 Cloudy 72 22.2 62 16.7 71 71 SE 21 33 29.88 1012 10 16 0.00 0.00
6:53 am 06:53 Cloudy 71 21.7 62 16.7 73 73 SE 20 31 29.91 1013 10 16 0.00 0.00
7:26 am 07:26 Partly Cloudy 71 21.7 61 16.1 71 71 ESE 23 37 29.91 1013 10 16 0.00 0.00
7:53 am 07:53 Sunny 71 21.7 62 16.7 73 73 SE 22 35 29.91 1013 10 16 0.00 0.00
8:53 am 08:53 Mostly Sunny 73 22.8 61 16.1 66 66 SE 23 37 29.94 1014 10 16 0.00 0.00
9:53 am 09:53 Mostly Cloudy 73 22.8 61 16.1 66 66 SE 23 37 29.96 1015 10 16 0.00 0.00
10:00 am 10:00 Mostly Cloudy 73 22.8 61 16.1 66 66 SE 21 33 29.95 1014 10 16 0.00 0.00
10:53 am 10:53 Mostly Cloudy 74 23.3 61 16.1 64 64 SE 23 37 29.96 1015 10 16 0.00 0.00
11:53 am 11:53 Mostly Cloudy 76 24.4 61 16.1 60 60 SE 21 33 29.97 1015 10 16 0.00 0.00
12:17 pm 12:17 Mostly Cloudy 77 25 61 16.1 58 58 undefined N/A 29.94 1014 10 16 0.00 0.00
12:53 pm 12:53 undefined 80 26.7 61 16.1 52 52 ESE 20 31 29.96 1015 10 16 0.00 0.00
1:53 pm 13:53 Sunny 79 26.1 60 15.6 52 52 SE 23 37 29.93 1014 10 16 0.00 0.00
2:53 pm 14:53 Sunny 85 29.4 59 15 42 42 SE 20 31 29.92 1013 10 16 0.00 0.00
3:53 pm 15:53 Sunny 88 31.1 57 13.9 35 35 ESE 20 31 29.88 1012 10 16 0.00 0.00
4:53 pm 16:53 Sunny 88 31.1 54 12.2 31 31 SE 25 41 29.85 1011 10 16 0.00 0.00
5:53 pm 17:53 Sunny 86 30 52 11.1 31 31 ESE 20 31 29.83 1010 10 16 0.00 0.00
6:53 pm 18:53 Sunny 88 31.1 51 10.6 28 28 SE 25 41 29.80 1009 10 16 0.00 0.00
7:53 pm 19:53 Sunny 86 30 55 12.8 35 35 ESE 18 30 29.80 1009 10 16 0.00 0.00
8:53 pm 20:53 Clear 83 28.3 57 13.9 41 41 ESE 30 48 29.83 1010 10 16 0.00 0.00
9:53 pm 21:53 Clear 79 26.1 60 15.6 52 52 ESE 26 43 29.88 1012 10 16 0.00 0.00
10:53 pm 22:53 Clear 76 24.4 62 16.7 62 62 ESE 25 41 29.91 1013 10 16 0.00 0.00
11:53 pm 23:53 Clear 74 23.3 62 16.7 67 67 ESE 18 30 29.93 1014 10 16 0.00 0.00

Powered by AerisWeather